GFSFLT1_sfc_temp_021.txt.gz
Temp
78 78 76 76 78 75 74 73 73 72 74 72 72 70 70 70 69 68 67 68 67 69 66 67 69 73 69 70 69 68 66 64
79 79 77 76 74 77 76 74 72 72 74 72 72 71 70 69 69 68 68 66 64 64 64 64 66 66 66 65 64 64 64 65
77 78 78 77 73 76 75 74 73 73 72 73 72 71 71 71 69 69 68 66 65 63 63 63 64 64 64 63 62 62 62 63
75 74 74 74 77 74 76 73 74 73 72 73 72 72 72 71 69 69 68 67 64 63 63 63 63 63 63 62 62 61 62 62
76 77 75 78 80 79 71 73 73 72 71 73 72 72 72 70 69 69 68 66 65 65 65 65 63 63 63 62 62 62 61 62
80 77 75 77 77 74 70 76 72 72 72 74 73 72 71 70 70 68 68 67 67 66 67 65 64 63 62 61 61 61 63 60
74 78 81 79 76 76 71 69 71 71 72 73 73 71 71 70 69 69 68 68 68 68 64 64 64 63 62 62 61 60 59 59
81 80 78 75 71 69 69 68 70 70 70 66 66 65 68 67 68 68 69 68 69 65 65 64 63 62 62 61 61 60 60 58
78 78 76 72 69 68 67 66 64 67 65 65 64 66 65 66 68 68 68 68 67 67 64 63 63 62 62 61 60 59 59 60
76 75 72 70 71 68 66 66 64 69 70 70 66 69 64 65 66 67 68 69 68 66 64 63 62 61 61 60 59 57 58 58
72 72 70 71 69 68 66 65 66 67 65 65 64 65 65 61 63 64 65 67 67 66 64 63 62 61 60 59 58 57 56 55
69 72 70 67 71 66 66 64 65 65 67 66 68 65 65 61 67 62 63 66 66 65 64 62 61 60 59 59 59 58 56 55
68 71 69 68 65 63 64 65 65 66 66 67 66 64 62 62 64 62 63 62 64 65 65 63 60 59 59 59 59 58 57 56
67 62 61 61 64 65 65 65 65 66 67 66 67 64 62 62 62 61 60 60 62 65 63 61 60 59 60 60 59 58 58 56
60 57 60 63 64 64 65 65 63 63 64 64 65 63 64 63 62 62 60 60 59 59 60 59 59 60 60 60 59 58 58 57
59 60 61 62 63 63 64 63 62 63 63 61 61 63 63 63 62 61 60 59 59 60 60 60 60 61 61 60 60 59 58 58
60 61 61 61 61 61 62 63 62 62 61 62 61 62 62 61 60 60 59 59 60 60 60 60 61 61 61 60 60 59 59 58
60 61 61 60 61 61 63 64 62 62 62 63 62 61 61 60 60 60 59 59 60 60 60 60 61 61 62 60 60 59 59 58
60 60 61 61 61 62 62 63 62 62 63 62 61 60 60 60 59 59 59 59 60 61 61 61 61 62 62 60 60 60 60 59
60 61 61 62 61 62 62 62 63 62 61 61 60 60 60 59 59 59 60 60 60 61 62 62 65 63 61 60 61 61 60 60

GFSFLT1_sfc_temp_024.txt.gz
Temp
76 76 74 75 78 73 73 72 72 71 73 71 71 71 71 70 70 70 70 69 70 71 68 71 70 74 71 73 72 71 69 68
74 75 75 75 73 76 75 73 72 71 73 72 72 71 70 70 70 69 68 68 67 68 67 66 67 69 69 69 68 68 67 67
75 75 75 74 74 77 75 72 71 71 70 72 70 71 71 71 70 69 69 67 66 67 66 65 65 67 67 67 66 66 66 66
74 73 73 72 73 72 73 71 72 72 70 71 71 71 71 70 70 70 69 67 66 65 65 64 65 65 66 66 65 65 65 66
72 76 72 74 76 73 68 71 71 70 70 70 71 72 71 70 71 69 69 67 65 65 64 63 64 65 65 64 64 64 64 65
73 73 71 72 70 70 69 73 70 70 71 71 72 71 70 70 71 69 69 67 66 65 64 63 64 64 64 64 63 63 63 64
70 73 73 72 72 70 70 65 69 69 70 70 70 69 69 70 69 68 69 67 67 66 65 65 66 65 64 63 63 64 63 62
72 72 74 74 70 67 66 65 66 67 67 67 66 65 68 68 67 67 68 67 68 66 65 65 65 64 63 63 64 63 63 62
70 71 72 71 67 65 65 63 62 66 65 65 64 66 65 65 67 67 67 67 68 66 65 65 64 64 64 64 63 62 61 62
69 72 69 67 68 66 65 63 62 66 68 65 65 65 64 66 66 67 68 68 67 67 65 64 64 63 63 63 62 60 61 61
69 69 68 69 65 65 66 63 62 65 65 64 62 63 63 62 64 65 67 68 67 67 66 65 64 63 62 61 61 60 59 58
68 69 67 69 68 65 64 63 62 64 65 65 64 61 61 62 64 64 65 67 67 66 66 65 64 63 62 61 61 60 59 58
65 68 69 65 63 61 60 61 63 64 65 65 64 62 61 63 63 63 64 64 66 66 65 64 63 62 62 61 60 60 59 59
63 63 62 61 65 64 64 63 63 64 65 65 63 62 62 62 62 62 61 62 63 64 65 64 62 62 61 61 61 60 60 59
61 59 60 65 65 66 65 63 62 63 64 64 64 63 64 63 63 61 61 61 61 62 62 62 61 62 62 62 61 61 60 59
58 58 63 64 65 63 62 62 61 62 63 62 62 64 65 63 64 63 61 61 61 62 63 62 62 63 63 62 61 61 61 60
59 62 63 61 61 61 61 61 61 61 61 62 62 62 63 62 61 61 61 61 62 61 62 61 62 63 63 62 61 62 61 61
61 61 60 59 60 61 61 61 61 61 62 63 62 61 62 62 62 61 61 61 62 61 61 62 63 63 63 63 62 62 61 61
61 60 59 59 60 61 60 61 62 61 62 62 62 61 61 61 61 61 61 61 61 62 63 63 63 63 63 62 62 62 62 61
61 59 59 59 60 61 60 61 62 62 62 62 61 61 61 60 60 60 61 61 62 63 64 65 65 64 64 63 63 63 62 62

GFSFLT1_sfc_temp_030.txt.gz
Temp
96 100 102 103 103 104 102 94 89 91 92 93 91 90 89 87 85 85 84 86 87 86 88 84 83 78 85 81 81 84 86 89
94 95 100 102 102 102 100 96 88 86 93 92 93 92 90 89 88 85 85 86 85 85 87 87 81 79 83 86 85 86 85 85
95 95 96 98 97 98 99 97 90 87 85 93 91 91 92 91 91 87 87 87 85 85 86 87 86 89 83 82 84 85 84 84
94 94 93 94 96 97 98 97 93 88 87 87 89 88 91 91 91 90 85 87 86 86 85 85 87 86 84 84 83 85 82 86
93 94 93 94 96 97 93 93 94 89 87 88 89 92 90 91 91 88 86 84 84 83 85 85 86 85 82 83 84 80 84 85
96 96 95 93 93 93 94 97 97 91 89 90 90 92 92 91 91 90 85 83 83 82 86 85 86 85 84 85 81 83 83 83
93 93 93 92 92 91 91 92 93 89 88 89 89 88 89 91 91 90 86 83 82 83 84 85 83 85 84 82 82 81 80 79
92 92 93 92 90 89 89 90 89 87 87 87 89 90 89 89 89 89 86 84 82 80 83 83 83 84 83 82 79 81 76 77
90 90 90 90 89 88 87 86 86 86 88 87 88 88 88 87 88 86 85 82 80 79 83 82 81 82 79 78 77 77 77 76
88 88 88 87 87 87 87 86 86 85 87 87 90 89 91 89 88 84 83 78 80 80 80 81 79 81 77 75 77 78 75 74
84 86 87 88 88 87 86 86 85 85 84 86 84 86 85 85 84 79 77 80 80 79 79 81 79 80 77 77 76 77 72 73
86 87 87 88 88 90 88 86 84 85 84 86 81 84 83 84 83 78 80 79 77 76 76 80 78 81 80 79 77 80 76 71
87 88 89 90 89 88 87 85 84 83 83 84 83 82 86 84 83 77 73 75 76 78 80 78 78 83 79 79 78 77 75 78
87 89 88 87 88 87 86 82 82 82 82 81 81 81 83 83 81 70 71 73 75 79 80 80 80 81 78 79 78 76 76 77
86 87 88 87 86 87 85 82 81 81 81 81 82 81 80 79 72 74 75 75 78 77 80 79 78 78 79 79 77 77 76 76
85 86 86 88 85 80 82 82 80 81 81 81 82 81 84 83 82 82 81 81 81 79 79 79 80 80 79 77 78 78 77 76
84 85 84 83 80 81 82 82 81 81 81 80 80 82 82 82 79 81 83 82 81 80 80 79 79 79 78 76 79 76 77 73
82 82 76 79 82 82 82 82 80 80 81 81 81 81 81 80 80 80 80 79 80 79 79 78 78 78 78 76 78 76 73 72
76 72 76 82 82 82 80 81 81 81 82 81 80 80 81 81 80 80 79 79 79 79 79 78 78 78 77 75 75 75 73 73
68 71 81 82 82 82 82 81 82 82 82 81 80 80 80 79 79 79 79 78 80 80 80 80 80 79 77 77 76 77 73 70

GFSFLT1_sfc_temp_033.txt.gz
Temp
103 104 105 104 106 107 108 98 96 97 97 98 92 90 88 86 84 84 83 86 87 88 88 84 82 78 82 80 80 82 81 84
99 100 104 105 105 106 106 104 94 91 97 96 96 95 92 89 88 85 84 85 85 86 89 87 83 85 83 84 85 81 80 85
100 101 101 101 100 102 104 103 95 90 88 95 94 95 95 93 92 88 87 87 84 86 87 89 87 88 84 86 86 85 85 85
96 98 98 98 98 99 101 102 95 91 89 88 92 91 95 95 94 93 86 87 86 88 86 88 90 88 89 87 87 87 85 85
96 96 95 98 99 98 97 96 97 90 88 89 90 95 94 94 95 91 90 85 85 85 87 87 89 88 85 86 86 86 86 85
99 99 98 98 98 97 97 100 98 90 89 91 92 95 95 96 95 96 90 87 85 85 87 87 88 86 87 85 85 85 84 83
98 100 100 98 96 94 93 94 95 94 92 92 91 90 93 96 97 95 92 89 86 85 87 88 85 87 87 83 85 84 82 82
98 99 98 96 94 92 91 92 92 92 93 90 92 94 94 94 94 95 92 89 87 83 86 84 86 86 85 85 81 83 81 82
98 97 96 95 93 91 90 88 87 89 91 90 91 92 93 93 92 91 91 89 86 82 84 84 84 83 82 81 81 79 77 79
93 93 93 92 91 89 88 87 87 87 90 87 92 94 95 94 93 90 88 87 85 83 82 84 81 84 81 80 78 77 79 78
90 90 91 92 91 89 88 87 86 87 87 90 89 89 89 92 90 88 86 86 82 81 80 83 82 82 82 79 77 76 77 75
88 89 89 90 91 92 91 88 87 88 87 86 84 86 86 90 89 88 84 83 79 80 78 78 78 82 81 78 80 79 75 73
87 90 91 93 94 93 91 89 87 86 86 83 87 84 90 90 89 80 80 78 78 78 78 77 77 82 80 79 79 76 76 79
89 91 92 92 94 93 91 88 86 86 86 84 83 84 86 86 85 78 77 76 76 75 78 77 80 80 79 80 78 77 77 78
88 90 91 91 91 91 90 88 85 86 85 84 84 85 85 83 78 76 73 72 73 74 78 79 80 79 80 80 79 78 77 78
88 89 91 93 91 90 90 88 85 85 84 84 84 85 87 82 80 78 76 77 78 79 80 80 81 81 82 80 80 79 78 77
87 89 91 91 92 87 86 86 85 84 84 83 83 83 85 82 80 80 82 82 81 80 79 80 81 82 81 78 80 77 78 76
87 89 89 89 87 87 86 85 84 84 84 84 83 80 82 80 80 76 77 80 81 80 80 80 81 81 80 77 79 78 77 73
86 86 84 87 87 86 84 84 84 82 82 78 77 77 78 79 79 79 81 81 81 82 81 80 80 79 79 77 78 78 76 73
72 79 87 87 86 86 85 84 85 83 80 77 76 79 80 80 80 81 82 81 82 82 82 81 81 81 79 78 77 78 75 72

GFSFLT1_sfc_temp_036.txt.gz
Temp
98 101 102 102 103 98 100 88 85 86 88 85 81 81 79 78 77 76 75 76 76 79 78 77 75 76 76 76 75 75 75 76
97 100 100 94 91 88 93 92 87 86 91 89 84 83 81 80 78 76 76 75 75 76 79 78 74 76 74 75 75 75 75 77
96 98 98 98 96 96 96 90 87 85 85 87 86 85 83 81 80 78 78 78 75 77 78 79 77 78 75 76 76 76 76 76
94 94 94 93 94 96 95 94 85 85 84 82 83 81 83 83 83 81 78 78 76 78 77 78 78 78 78 77 77 77 77 78
94 91 89 93 93 94 91 92 87 83 82 82 83 83 85 83 85 82 80 78 77 77 78 78 79 78 76 76 76 77 78 78
97 96 92 90 90 88 86 94 87 82 81 82 83 83 83 85 86 86 83 80 78 78 79 78 79 78 78 76 76 75 75 76
93 95 94 91 88 87 88 89 90 84 82 82 82 82 83 84 85 87 85 82 80 79 80 79 77 78 77 77 74 74 73 74
94 93 94 92 90 87 87 87 87 86 83 81 82 82 82 84 85 84 84 84 81 79 80 78 78 78 77 75 73 74 74 73
92 92 93 91 87 83 83 82 81 81 80 80 79 80 80 83 84 84 85 83 82 78 79 78 78 76 76 74 73 72 72 73
90 90 88 88 85 83 82 81 80 80 81 78 79 81 84 85 85 83 84 83 81 80 78 77 76 77 74 74 72 71 72 72
86 87 87 87 84 82 81 79 79 79 79 80 79 80 80 81 82 81 82 82 81 79 77 77 76 76 75 73 73 71 69 71
87 87 85 85 85 87 84 80 78 80 80 80 77 78 77 80 81 82 80 81 80 79 77 77 76 77 74 74 74 72 70 68
86 87 86 87 86 84 81 80 79 80 79 79 79 78 80 81 81 79 77 78 78 78 76 76 75 76 74 74 72 71 72 69
84 86 86 86 88 87 83 80 79 80 80 79 77 77 77 80 79 76 76 76 74 74 76 74 73 73 74 74 72 72 71 69
83 83 85 86 86 86 85 82 79 79 79 78 78 76 78 79 78 76 73 72 72 71 72 73 72 74 75 74 72 71 70 69
85 86 85 87 83 82 83 82 79 79 80 80 79 79 81 81 77 75 73 72 72 72 73 74 75 75 75 73 71 70 70 71
85 86 86 86 86 82 81 83 81 82 81 79 79 80 80 77 75 73 74 74 74 72 75 75 75 75 74 72 70 71 71 71
83 85 85 86 87 85 84 84 81 81 81 81 81 80 80 77 76 74 75 75 76 75 75 75 74 75 74 73 72 72 71 69
80 85 87 86 86 84 81 82 81 79 79 78 79 78 78 78 76 75 75 75 75 75 76 75 75 74 74 71 72 71 71 68
78 84 84 85 84 83 81 81 78 76 76 74 74 75 74 74 74 74 75 75 76 77 78 77 77 76 74 73 72 73 70 69